Voltar ao catálogo

OPS 4682 DEB

AtivoPO
NORAD 20131·DEBRIS·🇺🇸 United States

Lançado Apr 3, 1965 de Vandenberg Space Force Base

Loading…

Próximas Passagens (próximas 24 horas)

TLE

AtualizadoSource: Space-Track

Época: Sep 11, 2026, 06:55 UTC

1 20131U 65027BD  26254.28850381  .00000120  00000-0  36915-3 0  9991
2 20131  90.2450   6.5056 0034531  89.6677 299.0698 13.00401747776167

Acompanhe OPS 4682 DEB em tempo real com AllMySat

Download on the App Store